SHENZHOU-18 (SZ-18) (59591 NORAD) Tracking and Keplerian Element Data

This shows tracking and keplerian element data for the satellite.

Feedback or suggestion? Click here.




ElementValue
Catalog59591
NameSHENZHOU-18 (SZ-18)
Epoch Orbit666
Epoch Day159.95720941
Epoch Year2024
RAAN139.3689
Inclination41.4672
Eccentricity0.0002261
Argument of Perigee191.8945
Mean Anonmoly168.1841
Mean Motion15.61514737
Decay Rate0.00025472
L11 59591U 24078A 24159.95720941 .00025472 00000+0 29182-3 0 9992
L22 59591 41.4672 139.3689 0002261 191.8945 168.1841 15.61514737 6669



Live tracking and technical data element details for SHENZHOU-18 (SZ-18) (NORAD 59591). SHENZHOU-18 (SZ-18) can be tracked NOW for your location showing map with azimuth and elevation plus other details from your city location.







IsCatalogInMostPopularTable: catalog: 59591, numindb: 17
Update: records affected: 1



GetName: 59591 SHENZHOU-18 (SZ-18)

Hit Count: updated at: Fri, 14 Jun 2024 18:08:41 GMT